Regional Weather Roundup
Issued by NWS

Home | Current Version | Previous Version | Graphics & Text | Print | Product List | Glossary On
Versions: 1 2 3 4 5 6 7 8 9 10 11 12 13 14 15 16 17 18 19 20 21 22 23 24 25 26 27 28 29 30 31 32 33 34 35 36 37 38 39 40 41 42 43 44 45 46 47 48 49 50
000
ASUS43 KFSD 211402
RWRSD

WEATHER ROUNDUP FOR SOUTH DAKOTA
NATIONAL WEATHER SERVICE SIOUX FALLS SD
900 AM CDT SAT OCT 21 2017

NOTE: "FAIR" INDICATES FEW OR NO CLOUDS BELOW 12,000 FEET WITH NO
SIGNIFICANT WEATHER AND/OR OBSTRUCTIONS TO VISIBILITY.


SDZ001>005-009-010-012>017-211500-
NORTHWEST AND NORTH CENTRAL SOUTH DAKOTA

CITY           SKY/WX    TMP DP  RH WIND       PRES   REMARKS
BUFFALO          N/A     44  27  51 W25       29.62R
MOBRIDGE       CLOUDY    50  41  71 NW17G28   29.58R
$$

SDZ012>016-024>037-041>051-057-063-072>074-211500-
SOUTHWEST AND SOUTH CENTRAL SOUTH DAKOTA

CITY           SKY/WX    TMP DP  RH WIND       PRES   REMARKS
RAPID CTY ARPT CLOUDY    48  24  39 NW20G30   29.70R
PIERRE         MOCLDY    50  41  71 NW15      29.61R
CUSTER         CLOUDY    37  21  52 NW16G30   29.75R
ELLSWORTH AFB  CLOUDY    47  24  39 NW23G31   29.69R
PHILIP         CLOUDY    47  39  74 NW17G23   29.63S
PINE RIDGE     CLOUDY    45  43  93 S6        29.79R
SPEARFISH      FAIR      43  23  45 W17G26    29.75R
WINNER         FAIR      52  40  63 NW18G28   29.63R
$$

SDZ004>011-016>023-039-040-211500-
NORTHEAST SOUTH DAKOTA

CITY           SKY/WX    TMP DP  RH WIND       PRES   REMARKS
ABERDEEN       CLEAR     54  41  61 NW17G25   29.51R
WATERTOWN      CLOUDY    61  59  93 S10       29.48R
BROOKINGS      CLOUDY    63  59  87 S16       29.51R
SISSETON         N/A     63  58  83 SE8       29.47R
$$

SDZ017-020-022-023-036>040-048>070-211500-
SOUTHEAST SOUTH DAKOTA

CITY           SKY/WX    TMP DP  RH WIND       PRES   REMARKS
SIOUX FALLS    CLOUDY    65  62  90 S17G26    29.52S
HURON          CLOUDY    56  44  64 NW21      29.52R
CHAMBERLAIN    LGT RAIN  54  43  66 NW16G23   29.62R
MITCHELL       CLOUDY    62  52  69 NW22G29   29.51R
YANKTON        PTSUNNY   69  62  78 S15       29.51R
$$

ABBREVIATIONS USED IN REMARKS
   TC - TEMPERATURE IN CELSIUS
  WCI - WIND CHILL INDEX
   HX - HEAT INDEX
  VSB - VISIBILITY





USA.gov is the U.S. government's official web portal to all federal, state and local government web resources and services.